Temperature
17 17 17 17 17 17 17 17 17 17 17 17 17 17 17 17 17 18 18 18 18 18 18 18 18 18 18 18 18 18 18 18 18 17 17 17 17 17 17 17 17 17 16
17 17 17 17 16 16 16 16 16 16 16 17 17 17 17 17 17 17 17 17 17 18 18 18 18 18 18 18 18 18 18 18 18 18 17 17 17 17 17 17 17 17 16
16 16 16 16 16 16 16 16 16 16 16 16 16 16 16 17 17 17 17 17 17 17 18 18 18 18 18 18 18 18 18 18 18 18 18 17 17 17 17 17 17 17 17
15 15 15 15 15 15 15 16 16 16 16 16 16 16 16 16 17 17 17 17 17 17 17 17 17 18 18 18 18 18 18 18 18 18 18 18 17 17 17 17 17 17 17
14 15 14 14 15 15 15 15 15 15 15 15 15 16 16 16 16 16 17 17 17 17 17 17 17 17 17 17 18 18 18 18 18 18 18 18 18 17 17 17 17 17 17
14 14 14 14 14 14 14 14 14 14 14 15 15 15 16 16 16 16 16 16 16 16 16 17 17 17 17 17 17 17 18 18 18 18 18 18 18 18 18 17 17 17 17
13 13 13 13 13 13 14 14 13 14 14 14 15 15 16 16 17 17 17 16 16 16 16 16 16 16 16 17 17 17 17 17 18 18 18 18 18 17 18 18 17 17 17
13 13 13 13 13 13 13 13 13 13 13 14 14 14 15 16 16 17 17 16 16 16 16 16 16 16 16 16 17 17 17 17 17 17 17 18 18 17 17 17 17 17 17
13 13 12 12 12 12 12 13 13 13 13 13 14 14 14 15 15 16 16 16 16 16 16 16 16 16 16 16 16 16 16 17 17 17 17 17 17 17 17 17 17 17 17
13 13 12 12 12 12 12 12 12 12 12 12 13 13 14 14 14 14 15 16 16 16 16 16 16 16 16 16 16 16 16 16 16 17 17 17 17 17 17 17 17 17 17
13 13 12 12 12 12 12 12 12 12 12 12 12 12 13 13 14 14 14 15 15 15 15 15 15 15 15 15 16 16 16 16 16 16 16 16 17 17 17 17 17 17 17
13 13 13 12 12 11 11 11 11 11 11 11 12 12 12 12 13 13 13 14 14 15 15 15 15 15 15 15 15 15 15 16 16 16 16 16 16 16 17 17 17 17 17
13 13 13 12 12 11 11 11 11 11 11 11 11 11 11 12 12 12 13 13 13 14 14 15 15 15 15 15 15 15 15 15 15 16 16 16 16 16 16 16 17 17 17
13 13 12 12 11 11 11 11 11 11 11 11 11 11 11 11 11 12 12 12 12 13 14 14 15 15 15 15 15 15 15 15 15 15 15 15 15 16 16 16 16 16 16
12 12 12 12 11 11 11 11 11 11 11 11 11 11 11 11 11 11 12 12 12 12 13 14 14 14 14 14 14 14 14 14 15 15 15 15 15 15 15 15 16 16 16
12 12 12 12 11 11 11 11 11 11 11 11 10 10 11 11 11 11 11 11 11 12 12 12 13 13 13 14 14 14 14 14 14 14 15 15 15 15 15 15 15 15 16
12 12 12 11 11 11 11 11 11 11 10 10 10 10 10 10 10 10 10 11 11 11 11 12 12 13 13 13 13 13 13 14 14 14 14 15 15 15 15 15 15 15 15
12 12 11 11 11 11 11 11 10 10 10 10 10 10 10 10 10 10 10 10 10 11 11 11 11 12 12 12 13 13 13 13 13 14 14 14 14 14 14 15 15 15 15
12 12 12 11 11 11 11 10 10 10 10 10 10 10 10 10 10 10 10 10 10 10 10 11 11 11 12 12 12 13 13 13 13 13 14 14 14 14 14 14 15 15 15
12 12 12 11 11 11 11 11 10 10 10 10 10 10 10 10 10 10 10 10 10 10 10 10 10 11 11 12 12 12 13 13 13 13 13 14 14 14 14 14 14 15 15
12 12 12 11 11 11 11 11 11 10 10 10 10 10 9 9 9 10 9 9 9 9 9 9 10 10 11 11 12 12 12 13 13 13 13 13 14 14 14 14 14 14 15
12 12 12 11 11 11 11 11 10 10 10 10 10 10 9 9 9 10 10 10 9 9 9 9 9 9 10 11 11 11 12 12 12 13 13 13 13 13 14 14 14 14 14
13 12 12 12 11 11 11 11 10 10 10 10 10 10 9 9 9 9 9 9 9 9 9 9 9 9 10 10 10 10 11 11 11 12 12 12 13 13 13 13 14 14 14
13 13 12 12 11 11 11 10 10 10 10 10 10 10 9 9 9 9 9 9 9 9 9 9 9 9 10 10 10 9 9 10 11 11 12 12 12 13 13 13 13 13 14
13 13 12 12 11 11 11 10 10 10 10 10 10 9 9 9 9 9 9 9 9 9 9 9 9 9 9 9 9 9 9 9 10 11 11 12 12 12 12 13 13 13 13
13 13 12 12 11 11 11 11 10 10 10 9 9 9 9 9 9 9 9 9 8 9 8 8 8 8 9 9 9 9 9 8 9 10 11 11 12 12 12 12 13 13 13
Wind_Speed
3 4 3 3 5 3 2 2 2 3 4 5 7 7 7 10 10 10 7 18 21 22 21 20 19 19 19 19 19 19 18 18 17 17 16 15 15 15 14 14 13 12 12
6 5 4 2 3 3 3 2 3 3 3 3 5 6 6 9 10 11 10 14 20 22 22 21 21 21 21 21 21 21 20 20 19 19 19 18 17 17 16 16 15 14 14
8 7 4 3 3 5 3 3 3 4 4 4 4 5 5 7 8 10 12 11 14 20 22 23 23 22 22 22 23 23 22 22 21 21 21 21 20 19 19 18 17 16 16
8 7 4 4 6 6 4 3 2 3 3 4 4 4 4 4 6 9 11 12 12 14 19 24 24 24 23 24 24 24 24 24 24 23 23 22 22 22 21 20 19 18 18
8 8 5 4 6 4 3 5 5 5 5 5 6 6 5 5 5 7 8 10 13 14 14 18 24 25 25 25 25 25 26 26 26 25 25 24 23 23 23 22 22 21 20
7 8 5 6 6 4 4 4 5 4 4 5 8 7 5 6 6 6 7 7 10 14 15 16 18 21 26 26 26 26 26 27 27 27 27 26 25 25 25 25 24 23 22
5 5 4 5 5 5 6 6 5 6 5 5 5 6 6 7 7 6 5 5 5 8 10 12 13 14 16 25 28 27 28 28 29 29 29 28 28 27 27 26 26 25 24
4 5 5 5 5 5 6 4 4 4 6 6 5 6 5 5 3 3 3 4 4 2 3 8 9 11 13 13 20 27 29 29 30 30 30 30 30 29 29 28 27 27 26
2 3 3 4 5 6 5 6 5 5 5 6 5 4 4 4 6 4 2 0 1 2 2 3 6 9 12 13 15 21 27 29 31 31 32 32 31 31 30 30 29 28 28
3 2 1 2 4 5 6 6 6 6 6 6 6 5 4 3 3 4 5 3 1 2 3 4 4 6 10 12 14 15 20 26 29 31 32 32 32 32 31 31 30 29 29
4 4 3 1 2 4 4 5 6 6 5 5 5 6 6 5 4 5 6 5 4 3 3 4 3 4 7 10 11 13 14 18 23 27 30 32 32 33 32 32 32 31 30
2 2 2 2 2 4 4 5 5 7 5 6 5 5 6 5 5 5 6 6 5 4 3 3 3 3 5 7 9 11 13 16 18 21 25 28 30 31 32 33 33 32 31
3 2 2 1 3 4 4 5 5 6 6 6 5 5 5 6 6 6 6 6 7 6 5 4 3 2 4 3 4 7 11 15 18 20 22 24 27 29 31 32 33 33 32
4 2 1 3 4 5 6 5 5 7 6 5 7 6 5 6 6 5 5 6 7 7 6 6 3 2 1 3 3 6 8 12 16 18 20 22 24 27 29 30 31 31 32
4 4 3 4 5 5 5 6 6 7 7 6 7 7 5 5 5 5 5 5 6 7 7 6 4 2 2 3 4 5 6 8 13 17 18 20 22 24 26 28 30 31 31
5 5 6 6 6 6 6 6 6 7 7 6 6 7 6 6 6 5 5 5 5 6 8 6 6 5 4 4 6 5 7 9 12 16 18 19 20 22 24 25 27 30 31
6 6 6 7 7 7 7 7 7 8 8 8 8 8 8 7 6 6 6 6 6 6 8 7 6 5 4 6 4 6 9 9 10 15 18 19 20 21 22 23 24 27 29
6 6 6 6 7 8 7 7 8 8 8 8 8 8 8 8 8 7 6 7 7 7 7 9 7 7 8 7 6 7 6 9 9 13 17 18 19 20 21 22 23 26 28
6 6 7 7 7 7 7 7 8 8 8 8 8 8 8 8 8 7 7 7 7 9 7 7 8 6 6 7 6 7 7 6 8 11 14 17 18 19 21 22 22 24 26
6 7 7 7 7 8 8 8 8 8 8 8 8 8 9 9 9 9 8 8 8 8 8 8 8 7 7 7 6 6 6 6 6 7 8 10 14 17 18 19 21 22 25
8 7 7 7 7 8 9 7 6 8 7 7 8 8 10 11 12 10 10 7 7 6 6 7 7 7 7 6 5 5 6 5 6 5 5 5 6 7 10 15 17 19 22
7 6 7 8 9 10 5 4 5 7 7 8 9 9 10 12 13 15 16 15 12 10 9 8 8 8 8 7 6 6 5 5 5 3 5 6 6 6 6 8 12 15 18
6 7 7 8 9 9 11 10 11 8 9 9 9 9 12 13 10 8 11 14 16 18 17 12 11 11 10 9 7 8 7 7 6 4 3 5 5 5 3 5 10 12 14
6 7 7 8 8 11 12 12 12 10 10 10 11 11 11 11 13 10 9 9 9 10 13 13 13 13 13 10 9 8 8 8 8 6 6 5 4 4 3 3 6 9 11
7 7 8 9 9 10 11 12 12 8 9 11 12 12 12 11 13 12 9 9 9 9 12 15 15 16 16 15 10 7 7 8 8 7 5 5 3 3 3 3 3 6 9
7 8 9 9 9 9 11 13 12 9 10 10 9 10 13 13 12 11 9 9 10 10 10 11 10 12 13 14 15 12 10 9 9 7 5 4 4 3 3 2 3 3 4
Wind_Direction
7 359 335 316 296 291 284 315 296 283 273 267 258 247 241 250 255 256 224 187 188 190 191 194 197 201 203 202 201 200 199 198 196 194 193 191 188 185 183 182 180 177 174
17 350 321 315 312 343 23 330 302 286 274 263 259 260 249 249 249 249 239 207 200 198 199 201 203 205 207 207 207 206 204 203 200 199 197 196 194 192 190 189 187 186 184
7 342 313 312 4 345 331 278 287 279 266 270 263 265 255 251 249 243 245 233 213 209 208 207 207 209 210 211 211 210 208 207 204 202 201 200 199 197 195 194 194 193 193
6 339 323 0 2 332 312 306 284 314 337 331 310 287 272 255 254 246 240 239 229 222 218 215 212 212 213 215 215 214 212 210 207 205 204 203 202 201 200 199 198 198 198
12 351 333 357 340 323 326 332 14 3 337 325 303 271 260 254 248 250 237 234 231 227 225 221 219 218 218 220 219 217 215 213 210 208 207 206 205 204 203 202 202 202 202
25 351 322 10 349 329 345 356 344 325 304 288 292 305 286 260 244 242 243 238 231 226 224 225 219 222 224 224 223 222 219 216 213 212 211 209 209 207 205 205 205 204 204
14 317 349 345 329 343 346 333 338 323 310 295 299 298 288 263 238 225 227 235 239 235 229 222 218 218 223 226 226 226 224 221 217 215 213 212 211 209 207 206 206 206 206
357 338 30 337 355 336 314 327 328 315 313 322 319 313 308 303 345 279 222 225 233 243 254 243 222 222 228 225 226 227 228 226 222 219 216 213 212 210 208 208 207 207 207
331 342 342 346 346 326 340 345 333 333 323 317 306 306 313 333 340 319 327 5 179 211 250 269 245 238 237 236 231 226 227 227 226 224 220 216 213 211 209 208 209 208 208
261 275 312 340 336 320 322 329 15 339 326 317 319 315 296 311 310 316 319 326 293 231 225 241 253 248 244 243 240 238 230 228 228 227 224 219 214 211 210 209 210 211 210
234 220 203 220 310 298 323 344 327 322 315 313 320 323 322 312 268 270 294 308 304 281 251 234 231 240 252 247 242 242 240 233 230 229 227 222 218 214 212 212 213 213 212
261 194 190 139 293 303 333 322 310 302 303 311 313 307 307 306 306 302 300 306 302 294 286 264 237 229 244 247 244 248 245 242 236 232 229 225 220 217 215 215 215 215 215
307 59 45 27 297 302 295 283 286 284 287 290 291 287 297 305 307 303 301 302 302 299 289 274 238 216 235 219 238 253 249 243 238 233 230 228 224 221 218 216 216 217 217
309 346 300 264 263 268 278 288 293 287 282 282 282 283 284 284 287 292 291 297 300 297 287 278 263 210 223 196 216 249 257 247 238 234 231 227 224 222 220 218 217 218 218
294 316 320 296 281 271 267 272 272 279 283 280 279 280 272 281 286 283 284 280 284 290 291 292 292 258 249 215 209 239 260 260 244 236 232 229 224 221 219 218 218 218 218
286 282 279 284 283 278 270 261 266 269 271 268 263 267 273 273 279 286 287 283 274 275 283 291 293 282 271 272 236 244 259 267 253 238 231 230 227 221 220 218 218 218 219
270 274 272 271 272 271 269 263 261 267 269 267 268 268 264 264 268 276 282 284 282 278 279 285 288 292 277 274 264 257 263 259 256 240 230 227 227 224 220 220 221 220 219
263 270 272 272 273 274 272 273 274 276 273 271 269 269 269 268 260 259 265 271 274 275 276 279 281 282 275 266 255 249 258 261 255 242 227 226 226 225 222 221 223 223 221
268 271 273 274 274 275 274 269 266 267 268 270 271 271 270 268 267 263 263 267 274 279 280 281 283 276 272 269 261 256 255 255 255 245 226 226 224 222 223 223 225 225 223
265 266 267 270 273 275 274 269 266 266 266 267 267 268 269 266 263 262 263 259 263 269 275 279 278 276 272 266 260 251 255 245 244 240 226 219 221 222 224 224 226 226 225
266 268 271 273 273 272 270 271 268 271 278 284 281 275 271 268 261 256 261 263 271 273 276 278 277 278 275 275 273 264 264 259 242 226 223 213 208 215 220 225 226 228 227
256 263 269 273 273 276 272 256 260 283 284 281 279 277 277 272 261 246 244 246 248 257 263 269 276 279 286 299 311 308 299 294 277 239 222 230 211 214 211 213 217 222 226
265 264 266 269 271 271 263 246 239 254 267 269 271 273 276 276 282 268 250 244 245 246 244 249 261 268 276 286 306 313 310 305 292 286 263 252 231 222 205 205 205 213 220
259 264 266 269 270 271 264 247 239 245 261 263 263 262 263 267 271 270 272 264 254 250 244 241 243 250 257 265 272 280 287 289 281 264 231 241 230 215 186 186 201 209 214
257 262 266 263 264 266 258 243 234 253 260 263 262 263 261 260 256 248 249 257 262 263 261 252 236 236 239 243 246 262 273 278 279 275 238 224 214 197 187 190 199 214 214
258 264 264 261 263 267 262 242 227 247 260 265 265 262 260 258 256 237 235 248 256 259 267 278 269 254 249 247 238 236 245 255 264 271 245 214 199 178 199 190 184 198 206
Height
1551 1550 1550 1550 1551 1551 1551 1550 1551 1551 1551 1551 1552 1552 1553 1554 1556 1557 1559 1560 1561 1563 1565 1567 1569 1572 1574 1577 1579 1581 1584 1586 1588 1591 1593 1595 1598 1600 1602 1604 1605 1607 1609
1548 1548 1549 1549 1549 1549 1548 1548 1549 1548 1548 1549 1549 1549 1550 1550 1551 1553 1555 1556 1557 1559 1561 1563 1566 1568 1571 1573 1576 1578 1581 1583 1586 1588 1591 1593 1596 1598 1600 1602 1604 1606 1608
1547 1546 1547 1547 1547 1547 1547 1547 1547 1547 1546 1546 1546 1546 1546 1547 1547 1548 1550 1551 1552 1554 1556 1558 1561 1564 1567 1569 1572 1575 1577 1580 1583 1585 1588 1590 1593 1595 1598 1600 1602 1605 1607
1545 1545 1545 1545 1545 1545 1545 1546 1545 1545 1544 1544 1543 1543 1543 1543 1543 1544 1545 1546 1548 1549 1551 1553 1556 1558 1561 1564 1567 1570 1573 1576 1579 1581 1584 1587 1590 1593 1595 1598 1600 1602 1605
1544 1543 1543 1543 1543 1543 1544 1544 1543 1542 1541 1541 1541 1540 1540 1540 1540 1540 1541 1542 1543 1544 1546 1548 1550 1553 1555 1558 1561 1564 1568 1571 1574 1577 1580 1583 1586 1589 1592 1594 1597 1600 1602
1543 1542 1542 1541 1541 1541 1541 1541 1540 1540 1540 1539 1539 1538 1537 1536 1536 1536 1537 1538 1539 1540 1541 1543 1545 1546 1549 1552 1555 1558 1561 1565 1568 1572 1575 1578 1581 1584 1587 1590 1593 1596 1599
1542 1541 1540 1540 1540 1539 1539 1539 1538 1538 1538 1538 1538 1536 1535 1533 1533 1533 1533 1534 1535 1536 1537 1538 1540 1541 1543 1546 1548 1552 1555 1558 1562 1566 1569 1572 1576 1579 1582 1586 1589 1592 1595
1541 1541 1539 1538 1538 1537 1538 1537 1537 1536 1536 1536 1536 1535 1533 1532 1531 1530 1531 1531 1531 1532 1533 1534 1535 1536 1538 1540 1542 1545 1548 1551 1555 1558 1562 1566 1570 1573 1577 1581 1584 1587 1591
1539 1539 1537 1536 1536 1535 1536 1535 1535 1534 1534 1534 1534 1535 1534 1531 1530 1529 1529 1529 1529 1529 1529 1530 1530 1531 1532 1534 1536 1538 1541 1544 1547 1551 1555 1559 1563 1567 1571 1575 1578 1582 1586
1538 1537 1536 1535 1534 1534 1534 1534 1533 1532 1532 1532 1532 1532 1533 1532 1531 1529 1528 1527 1527 1527 1527 1527 1527 1527 1528 1529 1531 1532 1534 1537 1540 1543 1547 1551 1555 1559 1563 1568 1572 1576 1580
1537 1536 1535 1534 1533 1532 1532 1531 1530 1530 1529 1530 1529 1529 1529 1529 1529 1529 1527 1526 1525 1525 1525 1524 1524 1524 1524 1525 1525 1527 1528 1530 1532 1535 1539 1543 1547 1551 1556 1560 1565 1569 1573
1536 1535 1534 1532 1531 1531 1530 1529 1528 1527 1527 1527 1526 1526 1527 1527 1527 1526 1525 1524 1523 1522 1522 1521 1520 1520 1520 1520 1520 1521 1522 1523 1525 1528 1531 1534 1538 1543 1547 1552 1557 1561 1566
1534 1533 1532 1530 1529 1528 1527 1527 1526 1525 1525 1524 1524 1524 1524 1524 1524 1523 1523 1521 1520 1519 1518 1518 1517 1517 1516 1516 1516 1516 1517 1517 1519 1521 1523 1526 1529 1534 1539 1543 1548 1553 1558
1531 1530 1529 1528 1527 1526 1525 1524 1523 1522 1522 1522 1521 1521 1520 1520 1520 1520 1520 1519 1517 1516 1515 1515 1514 1513 1513 1512 1512 1512 1511 1512 1512 1513 1515 1517 1520 1525 1529 1535 1540 1545 1550
1528 1528 1526 1525 1524 1523 1522 1521 1520 1519 1519 1518 1518 1518 1517 1517 1517 1517 1516 1516 1516 1514 1512 1512 1511 1510 1509 1508 1508 1507 1507 1507 1507 1507 1508 1510 1512 1516 1521 1526 1531 1536 1541
1524 1523 1522 1521 1520 1519 1518 1517 1516 1516 1515 1514 1514 1513 1513 1513 1512 1512 1512 1512 1512 1511 1508 1508 1507 1507 1506 1505 1504 1503 1503 1502 1502 1502 1502 1503 1505 1508 1512 1517 1522 1527 1532
1520 1519 1518 1517 1517 1516 1515 1514 1513 1512 1511 1510 1510 1509 1509 1508 1508 1507 1507 1507 1507 1506 1504 1503 1503 1502 1502 1501 1500 1499 1498 1497 1497 1497 1497 1497 1499 1501 1504 1508 1513 1518 1523
1517 1516 1515 1514 1513 1512 1511 1510 1509 1508 1507 1506 1506 1505 1504 1504 1503 1503 1502 1502 1502 1501 1501 1498 1498 1497 1497 1496 1495 1494 1493 1493 1492 1492 1491 1492 1493 1495 1497 1501 1505 1509 1514
1513 1512 1511 1510 1509 1508 1507 1505 1504 1503 1502 1502 1501 1500 1499 1499 1498 1497 1497 1497 1496 1496 1496 1494 1493 1493 1492 1492 1491 1490 1489 1488 1487 1486 1486 1487 1488 1489 1491 1494 1497 1501 1505
1510 1508 1507 1506 1505 1503 1502 1501 1500 1499 1498 1497 1496 1495 1494 1493 1493 1492 1492 1491 1491 1490 1490 1489 1488 1487 1487 1487 1486 1485 1484 1483 1482 1482 1482 1482 1483 1484 1486 1488 1490 1493 1496
1506 1504 1503 1502 1500 1499 1498 1497 1495 1494 1493 1491 1490 1489 1488 1488 1487 1487 1486 1486 1486 1485 1484 1484 1483 1483 1482 1482 1482 1480 1479 1478 1477 1477 1477 1477 1478 1479 1480 1481 1483 1485 1488
1501 1500 1498 1497 1495 1495 1494 1492 1491 1489 1487 1485 1484 1483 1482 1481 1481 1480 1480 1479 1480 1479 1478 1478 1477 1477 1477 1477 1476 1476 1475 1474 1473 1474 1473 1472 1473 1473 1474 1476 1477 1479 1481
1497 1495 1494 1492 1490 1489 1488 1486 1485 1483 1481 1479 1478 1476 1475 1475 1475 1474 1473 1473 1472 1472 1472 1472 1470 1470 1470 1471 1471 1470 1469 1469 1468 1468 1468 1467 1468 1468 1469 1470 1471 1473 1474
1492 1490 1488 1487 1485 1483 1482 1481 1479 1477 1475 1473 1472 1470 1469 1468 1468 1468 1467 1466 1466 1465 1465 1465 1464 1463 1464 1465 1465 1465 1465 1464 1463 1463 1464 1463 1463 1463 1464 1465 1466 1467 1468
1486 1485 1483 1481 1479 1477 1476 1475 1473 1471 1469 1467 1466 1465 1464 1463 1462 1462 1461 1460 1459 1458 1458 1458 1458 1457 1457 1458 1459 1459 1459 1459 1458 1458 1459 1458 1457 1458 1459 1460 1461 1462 1463
1481 1479 1477 1475 1474 1472 1470 1469 1467 1465 1463 1462 1460 1459 1458 1457 1456 1455 1454 1453 1452 1451 1451 1451 1450 1450 1450 1450 1451 1451 1452 1452 1452 1452 1453 1454 1453 1454 1455 1455 1456 1458 1459